Location: Caltech
(34.1382°N, 118.1253°W)
Time: 00:22:19
(UTC-07:00)

Iridium 14 - Visible Passes

Search period start: 24 April 2017 00:00
Search period end: 04 May 2017 00:00
Orbit: 776 x 779 km, 86.4° (Epoch: 22 April)

Date Brightness Start Highest point End Pass type
(mag) Time Alt. Az. Time Alt. Az. Time Alt. Az.
24 Apr 6.8 03:28:13 45° NNW 03:28:13 45° NNW 03:31:50 10° N visible
25 Apr 7.3 02:54:53 38° NNE 02:54:53 38° NNE 02:58:15 10° N visible
25 Apr 8.1 04:35:21 12° WNW 04:35:21 12° WNW 04:36:31 10° NW visible
26 Apr 8.0 02:21:33 24° NE 02:21:33 24° NE 02:24:15 10° NNE visible
26 Apr 7.6 04:02:02 21° NW 04:02:02 21° NW 04:04:41 10° NNW visible
27 Apr 8.7 01:48:12 13° ENE 01:48:12 13° ENE 01:49:30 10° NE visible
27 Apr 7.2 03:28:40 33° NNW 03:28:40 33° NNW 03:31:47 10° N visible
28 Apr 7.2 02:55:18 38° N 02:55:18 38° N 02:58:26 10° N visible
29 Apr 7.8 02:21:56 29° NE 02:21:56 29° NE 02:24:42 10° NNE visible
29 Apr 8.0 04:02:24 15° NW 04:02:24 15° NW 04:03:59 10° NW visible
30 Apr 8.4 01:48:33 18° NE 01:48:33 18° NE 01:50:29 10° NNE visible
30 Apr 7.6 03:29:01 24° NW 03:29:01 24° NW 03:31:35 10° NNW visible
01 May 7.4 02:55:38 32° NNW 02:55:38 32° NNW 02:58:29 10° N visible
02 May 7.6 02:22:14 31° NNE 02:22:14 31° NNE 02:24:59 10° N visible
03 May 8.1 01:48:50 23° NE 01:48:50 23° NE 01:51:05 10° NNE visible
03 May 8.0 03:29:18 17° NW 03:29:18 17° NW 03:31:08 10° NNW visible
